Preview of NWS' New Version of Forecast
This preview is not operational and should not be used for support decisions.

Regional Weather Roundup (RWR)

Issued by National Weather Service (NWS)

                            
000
ASUS44 KJAN 241310
RWRMS 

MISSISSIPPI HOURLY WEATHER ROUNDUP
NATIONAL WEATHER SERVICE JACKSON MS
800 AM CDT MON JUN 24 2019

NOTE: "FAIR: INDICATES FEW OR NO CLOUDS BELOW 12,000 FEET WITH NO
SIGNIFICANT WEATHER AND/OR OBSTRUCTIONS TO VISIBILITY.

MSZ001>002-007>008-010>013-018>021-025>028-034>036-241400-
NORTHWEST MISSISSIPPI
  
CITY           SKY/WX    TMP DP  RH WIND       PRES   REMARKS
BATESVILLE       N/A     70  68  94 CALM      29.81R                  
CLARKSDALE     PTSUNNY   72  72 100 S9        29.83R                  
CLEVELAND      FAIR      68  68 100 S9        29.83F                  
GREENWOOD      FAIR      70  68  93 SW14      29.87R                  
GREENVILLE       N/A    N/A N/A N/A MISG      29.82F                  
OLIVE BRANCH   CLOUDY    68  68 100 S12       29.81R                  
OXFORD         CLOUDY    66  66 100 SE6       29.82S                  
TUNICA           N/A     70  68  94 W12       29.87R                  
WINONA         FAIR      68  68 100 S5        29.86R                  
$$

MSZ003>006-009-014>017-022>024-029>033-037>039-241400-
NORTHEAST MISSISSIPPI
  
CITY           SKY/WX    TMP DP  RH WIND       PRES   REMARKS
ABERDEEN       LGT RAIN  72  72 100 SW6       29.88R                  
COLUMBUS AFB   CLOUDY    73  72  94 W10       29.87R                  
CORINTH        CLOUDY    73  72  94 S9G17     29.79F                  
GOLDN TRIANGLE LGT RAIN  74  71  91 W10       29.89R                  
STARKVILLE       N/A     70  68  94 CALM      29.90S                  
TUPELO         LGT RAIN  73  70  90 S9        29.82F                  
$$

MSZ040-058-241400-
CENTRAL MISSISSIPPI
  
CITY           SKY/WX    TMP DP  RH WIND       PRES   REMARKS
JACKSON INTL   FAIR      71  68  90 SW8       29.95R                  
JACKSON HAWKNS FAIR      71  70  96 W8        29.96R                  
MADISON        PTSUNNY   70  70 100 SW6       29.95R                  
MERIDIAN KEY   LGT RAIN  76  71  85 SW10      29.92S                  
MERIDIAN NAS   LGT RAIN  80  72  76 SW10G22   29.91S                  
RAYMOND        FAIR      70  70 100 VRB3      29.95S                  
VICKSBURG VKS  MOSUNNY   72  70  94 SW9       29.96F                  
$$

MSZ059>079-241400-
SOUTH MISSISSIPPI
  
CITY           SKY/WX    TMP DP  RH WIND       PRES   REMARKS
BROOKHAVEN     FAIR      70  66  88 E7        30.01R                  
HATTIESBURG    FAIR      75  71  87 SW8       29.98R                  
LAUREL         PTSUNNY   74  71  90 W13       29.96R                  
MCCOMB         FAIR      70  67  90 W6        30.00R                  
NATCHEZ        LGT RAIN  68  67  96 SW5       30.01R                  
PINE BELT      PTSUNNY   73  71  93 W6        29.99R                  
$$

MSZ080>082-241400-
COASTAL MISSISSIPPI
  
CITY           SKY/WX    TMP DP  RH WIND       PRES   REMARKS
BAY ST LOUIS   RAIN      73  68  83 NW14G22   30.00R                  
BILOXI         FAIR      86  76  73 SW16      29.98R HX  96           
PASCAGOULA     FAIR      86  75  69 SW10G23   29.99S HX  95           
GULFPORT       PTSUNNY   85  76  74 VRB6G17   29.97S HX  94           
$$

LAZ007>009-015>016-023>026-241400-
NORTHEAST LOUISIANA
  
CITY           SKY/WX    TMP DP  RH WIND       PRES   REMARKS
BASTROP        FAIR      67  66  98 S7        29.90F                  
TALLULAH/VBURG FAIR      70  67  90 VRB6      29.95F                  
VIDALIA        LGT RAIN  69  67  94 SW7       30.00R                  
$$